Tracking 19563 objects as of 20-Mar-2019
HD Live streaming from Space Station
objects crossing your sky now

TELECOM 1A

Track TELECOM 1A now!
TELECOM 1A is classified as:


NORAD ID: 15159
Int'l Code: 1984-081B
Perigee: 36,150.0 km
Apogee: 36,505.5 km
Inclination: 15.4 °
Period: 1,463.5 minutes
Semi major axis: 42698 km
RCS: 10.2909 m2 (large)
Launch date: August 4, 1984
Source: France (FR)
Launch site: FRENCH GUIANA (FRGUI)
aabbcc
Your satellite tracking list
Your tracking list is empty




NASA's NSSDC Master Catalog

Two Line Element Set (TLE):
1 15159U 84081B   19078.22341240 -.00000054 +00000-0 +00000-0 0  9995
2 15159 015.3639 355.0419 0041628 343.2826 190.3952 00.98396714092575
Source of the keplerian elements: AFSPC